Salida, CO

7:59 PM MDT on September 21, 2017 (GMT -0600)
Salida

Weather History for KANK - August, 2013

Change the Weather History Date:

Wednesday, August 21, 2013

  Actual Average (KGUC) Record (KGUC)
Temperature  
Mean Temperature 72 °F -  
Max Temperature 84 °F 73 °F 84 °F (2007)
Min Temperature 59 °F 42 °F 35 °F (2015)
Cooling Degree Days 6    
Growing Degree Days 22 (Base 50)    
Moisture  
Dew Point 42 °F    
Average Humidity 38    
Maximum Humidity 55    
Minimum Humidity 18    
Precipitation  
Precipitation 0.00 in - - ()
Sea Level Pressure  
Sea Level Pressure 30.41 in    
Wind  
Wind Speed 7 mph (WNW)    
Max Wind Speed 15 mph    
Max Gust Speed 22 mph    
Visibility 10 miles    
Events      
Averages and records for this station are not official NWS values.
T = Trace of Precipitation, MM = Missing Value Source: NWS Daily Summary

Daily Weather History Graph

Daily Weather History Graph

Search for Another Location

Airport or City:

Trip Planner

Search our weather history database for the weather conditions in past years. The results will help you decide how hot, cold, wet, or windy it might be!

Date:

Astronomy

Aug. 21, 2013 Rise Set
Actual Time 6:24 AM MDT 7:49 PM MDT
Civil Twilight 5:56 AM MDT 8:17 PM MDT
Nautical Twilight 5:22 AM MDT 8:50 PM MDT
Astronomical Twilight 4:47 AM MDT 9:25 PM MDT
Moon 8:01 PM MDT (8/21) 7:06 AM MDT (8/21)
Length of Visible Light 14h 21m
Length of Day
13h 25m
Full, 99% of the Moon is Illuminated
Aug 21
Full
Aug 28
Last Quarter
Sep 5
New
Sep 12
First Quarter
Sep 19
Full

Hourly Weather History & Observations

Time (MDT) Temp. Dew Point Humidity Pressure Visibility Wind Dir Wind Speed Gust Speed Precip Events Conditions
12:15 AM 65.3 °F 44.6 °F 47% 30.39 in 10.0 mi West 8.1 mph - N/A   Clear
12:35 AM 64.0 °F 43.9 °F 48% 30.39 in 10.0 mi WSW 8.1 mph - N/A   Clear
12:55 AM 63.0 °F 44.4 °F 51% 30.39 in 10.0 mi West 9.2 mph - N/A   Clear
1:15 AM 60.4 °F 43.9 °F 54% 30.39 in 10.0 mi West 10.4 mph - N/A   Clear
1:35 AM 60.8 °F 43.9 °F 54% 30.39 in 10.0 mi West 9.2 mph - N/A   Clear
1:55 AM 61.2 °F 43.2 °F 52% 30.39 in 10.0 mi WSW 10.4 mph - N/A   Clear
2:15 AM 61.7 °F 42.8 °F 50% 30.39 in 10.0 mi West 6.9 mph - N/A   Clear
2:35 AM 61.2 °F 42.4 °F 50% 30.39 in 10.0 mi West 9.2 mph - N/A   Clear
2:55 AM 61.7 °F 42.3 °F 49% 30.39 in 10.0 mi WSW 8.1 mph - N/A   Clear
3:15 AM 61.5 °F 42.3 °F 49% 30.39 in 10.0 mi West 6.9 mph - N/A   Clear
3:35 AM 61.9 °F 42.1 °F 48% 30.39 in 10.0 mi WSW 6.9 mph - N/A   Clear
3:55 AM 60.8 °F 43.5 °F 53% 30.39 in 10.0 mi WNW 4.6 mph - N/A   Clear
4:15 AM 60.8 °F 43.9 °F 54% 30.39 in 10.0 mi Calm Calm - N/A   Clear
4:35 AM 60.8 °F 43.7 °F 53% 30.39 in 10.0 mi Calm Calm - N/A   Clear
4:55 AM 63.7 °F 43.3 °F 48% 30.39 in 10.0 mi NW 10.4 mph - N/A   Clear
5:15 AM 63.5 °F 43.3 °F 48% 30.39 in 10.0 mi NW 6.9 mph - N/A   Clear
5:35 AM 62.1 °F 43.3 °F 50% 30.40 in 10.0 mi WNW 8.1 mph - N/A   Clear
5:55 AM 61.9 °F 43.3 °F 51% 30.40 in 10.0 mi NW 10.4 mph - N/A   Clear
6:15 AM 61.2 °F 43.2 °F 52% 30.41 in 10.0 mi NW 8.1 mph - N/A   Clear
6:35 AM 59.5 °F 43.3 °F 55% 30.42 in 10.0 mi WNW 6.9 mph - N/A   Clear
6:55 AM 60.3 °F 43.2 °F 53% 30.42 in 10.0 mi WNW 9.2 mph - N/A   Clear
7:15 AM 61.5 °F 43.3 °F 51% 30.42 in 10.0 mi NW 5.8 mph - N/A   Clear
7:35 AM 62.2 °F 43.7 °F 51% 30.42 in 10.0 mi NW 9.2 mph - N/A   Clear
7:55 AM 63.3 °F 43.9 °F 49% 30.43 in 10.0 mi NNW 8.1 mph - N/A   Clear
8:15 AM 64.6 °F 44.2 °F 48% 30.44 in 10.0 mi NNW 9.2 mph - N/A   Clear
8:35 AM 65.8 °F 43.9 °F 45% 30.44 in 10.0 mi NNW 6.9 mph - N/A   Clear
8:55 AM 68.0 °F 44.2 °F 42% 30.44 in 10.0 mi North 8.1 mph - N/A   Clear
9:15 AM 69.3 °F 44.2 °F 40% 30.44 in 10.0 mi North 3.5 mph - N/A   Clear
9:35 AM 71.1 °F 43.9 °F 38% 30.43 in 10.0 mi Calm Calm - N/A   Clear
9:55 AM 74.1 °F 43.0 °F 33% 30.43 in 10.0 mi Calm Calm - N/A   Clear
10:15 AM 75.0 °F 43.0 °F 32% 30.43 in 10.0 mi Calm Calm - N/A   Clear
10:35 AM 76.5 °F 43.0 °F 30% 30.42 in 10.0 mi Calm Calm - N/A   Clear
10:55 AM 78.6 °F 42.4 °F 28% 30.41 in 10.0 mi NNW 3.5 mph - N/A   Clear
11:15 AM 80.1 °F 37.0 °F 21% 30.40 in 10.0 mi North 5.8 mph - N/A   Clear
11:35 AM 81.0 °F 35.2 °F 19% 30.40 in 10.0 mi North 4.6 mph - N/A   Clear
11:55 AM 83.7 °F 37.2 °F 19% 30.39 in 10.0 mi NNE 5.8 mph - N/A   Clear
12:15 PM 82.9 °F 37.0 °F 19% 30.39 in 10.0 mi North 6.9 mph - N/A   Clear
12:35 PM 82.8 °F 37.8 °F 20% 30.38 in 10.0 mi SW 3.5 mph - N/A   Scattered Clouds
12:55 PM 82.6 °F 39.2 °F 21% 30.37 in 10.0 mi WSW 4.6 mph - N/A   Scattered Clouds
1:15 PM 83.7 °F 36.7 °F 19% 30.37 in 10.0 mi WSW 4.6 mph - N/A   Scattered Clouds
1:35 PM 84.2 °F 37.6 °F 19% 30.37 in 10.0 mi West 10.4 mph - N/A   Clear
1:55 PM 84.9 °F 36.3 °F 18% 30.37 in 10.0 mi West 13.8 mph 21.9 mph N/A   Clear
2:15 PM 81.9 °F 38.5 °F 21% 30.38 in 10.0 mi WSW 12.7 mph 19.6 mph N/A   Clear
2:35 PM 79.3 °F 39.4 °F 24% 30.38 in 10.0 mi SW 11.5 mph 18.4 mph N/A   Clear
2:55 PM 79.0 °F 36.9 °F 22% 30.38 in 10.0 mi WSW 10.4 mph 21.9 mph N/A   Mostly Cloudy
3:15 PM 79.0 °F 37.4 °F 22% 30.38 in 10.0 mi NNW 5.8 mph - N/A   Overcast
3:35 PM 80.6 °F 35.8 °F 20% 30.38 in 10.0 mi WNW 6.9 mph - N/A   Scattered Clouds
3:55 PM 81.9 °F 34.2 °F 18% 30.38 in 10.0 mi NW 3.5 mph - N/A   Mostly Cloudy
4:15 PM 80.6 °F 39.9 °F 23% 30.38 in 10.0 mi ENE 9.2 mph - N/A   Mostly Cloudy
4:35 PM 80.8 °F 39.2 °F 23% 30.38 in 10.0 mi NE 5.8 mph - N/A   Scattered Clouds
4:55 PM 80.4 °F 38.5 °F 22% 30.37 in 10.0 mi ENE 5.8 mph - N/A   Clear
5:15 PM 79.7 °F 39.6 °F 24% 30.37 in 10.0 mi SSW 4.6 mph - N/A   Clear
5:35 PM 79.3 °F 40.3 °F 25% 30.38 in 10.0 mi SW 4.6 mph - N/A   Clear
5:55 PM 78.3 °F 39.0 °F 24% 30.38 in 10.0 mi West 8.1 mph - N/A   Mostly Cloudy
6:15 PM 78.1 °F 39.6 °F 25% 30.38 in 10.0 mi WNW 10.4 mph 16.1 mph N/A   Mostly Cloudy
6:35 PM 77.5 °F 39.7 °F 26% 30.39 in 10.0 mi West 6.9 mph 17.3 mph N/A   Scattered Clouds
6:55 PM 75.4 °F 40.3 °F 28% 30.39 in 10.0 mi West 8.1 mph - N/A   Scattered Clouds
7:35 PM 73.9 °F 42.1 °F 32% 30.41 in 10.0 mi North 15.0 mph 21.9 mph N/A   Mostly Cloudy
7:55 PM 71.8 °F 43.2 °F 36% 30.42 in 10.0 mi NNW 10.4 mph 16.1 mph N/A   Mostly Cloudy
8:15 PM 71.1 °F 42.8 °F 36% 30.43 in 10.0 mi WNW 4.6 mph - N/A   Scattered Clouds
8:35 PM 68.7 °F 44.4 °F 42% 30.44 in 10.0 mi SW 10.4 mph - N/A   Clear
8:55 PM 67.8 °F 45.3 °F 44% 30.45 in 10.0 mi WSW 8.1 mph - N/A   Clear
9:15 PM 66.6 °F 45.3 °F 46% 30.45 in 10.0 mi SW 8.1 mph - N/A   Scattered Clouds
9:35 PM 67.5 °F 44.2 °F 43% 30.46 in 10.0 mi WSW 6.9 mph - N/A   Scattered Clouds
9:55 PM 66.4 °F 44.6 °F 45% 30.46 in 10.0 mi West 4.6 mph - N/A   Clear
10:15 PM 67.1 °F 45.0 °F 45% 30.45 in 10.0 mi North 4.6 mph - N/A   Clear
10:35 PM 66.7 °F 44.6 °F 45% 30.46 in 10.0 mi North 3.5 mph - N/A   Clear
10:55 PM 67.1 °F 44.1 °F 43% 30.46 in 10.0 mi NNW 3.5 mph - N/A   Clear
11:15 PM 63.5 °F 45.1 °F 51% 30.45 in 10.0 mi SW 5.8 mph - N/A   Clear
11:35 PM 64.0 °F 45.0 °F 50% 30.45 in 10.0 mi SW 8.1 mph - N/A   Clear
11:55 PM 64.2 °F 44.8 °F 49% 30.45 in 10.0 mi SW 8.1 mph - N/A   Clear